This is the latest recevied weather packets stored in our database for station/object DG0LHZ-10. If no packets are shown the sender has not sent any weather packets the latest 10 day(s).
| Time | Temp. | Humidity | Pressure | Rain* | Wind** | Luminosity | Snow |
|---|---|---|---|---|---|---|---|
| 1777373329 | 20.56° C | 34% | 1025.7 hPa | - | - | - | - |
| 1777372429 | 20° C | 35% | 1025.8 hPa | - | - | - | - |
| 1777371529 | 19.44° C | 36% | 1025.8 hPa | - | - | - | - |
| 1777370629 | 18.33° C | 37% | 1026 hPa | - | - | - | - |
| 1777369728 | 17.78° C | 38% | 1026 hPa | - | - | - | - |
| 1777368829 | 17.22° C | 38% | 1026 hPa | - | - | - | - |
| 1777367928 | 16.11° C | 39% | 1026 hPa | - | - | - | - |
| 1777367028 | 15.56° C | 40% | 1025.9 hPa | - | - | - | - |
| 1777366128 | 15° C | 40% | 1026 hPa | - | - | - | - |
| 1777365228 | 13.89° C | 40% | 1025.9 hPa | - | - | - | - |
| 1777364328 | 13.33° C | 41% | 1025.9 hPa | - | - | - | - |
| 1777363428 | 12.22° C | 42% | 1025.7 hPa | - | - | - | - |
| 1777362528 | 11.67° C | 42% | 1025.6 hPa | - | - | - | - |
| 1777361628 | 11.11° C | 42% | 1025.6 hPa | - | - | - | - |
| 1777360728 | 10.56° C | 42% | 1025.6 hPa | - | - | - | - |
| 1777359828 | 10° C | 43% | 1025.5 hPa | - | - | - | - |
| 1777358928 | 9.44° C | 44% | 1025.6 hPa | - | - | - | - |
| 1777358028 | 8.89° C | 45% | 1025.6 hPa | - | - | - | - |
| 1777357128 | 8.33° C | 46% | 1025.5 hPa | - | - | - | - |
| 1777356228 | 7.78° C | 46% | 1025.5 hPa | - | - | - | - |
| 1777355328 | 7.78° C | 46% | 1025.3 hPa | - | - | - | - |
| 1777354427 | 7.22° C | 45% | 1025.2 hPa | - | - | - | - |
| 1777353527 | 6.67° C | 45% | 1025 hPa | - | - | - | - |
| 1777352627 | 6.67° C | 44% | 1024.8 hPa | - | - | - | - |
| 1777351727 | 6.67° C | 44% | 1024.8 hPa | - | - | - | - |
* Rain since midnight (hover to see other rain measurements)
** Current wind speed in m/s (hover to see current wind gust speed)